www.pogodaiklimat.ru

Погода и климат >> Архив погоды >> Аргентина >> Формоса


ПОГОДА в Формосе

  • Прогноз погоды в Формосе
  • Монитор погоды в Формосе

АРХИВ ПОГОДЫ в Формосе

Время (UTC), дата Ветер
(напр.,м/с)
 
Видим.   Явления Облачность Т
(С)
Тd
(С)
f
(%)
Тe
(С)
Тes
(С)
Комфортность P
(гПа)
Po
(гПа)
Тmin
(С)
Tmax
(С)
R
(мм)
R24
(мм)
S
(см)
21 11.07 В 3 20 км ясно +26.6 +18.2 60 +31 +31 душно 1008.4 1001.4
00 12.07 В 4 20 км ясно +22.4 +16.2 68 +27 +27 душно 1009.2 1002.2 +20.6 +30.8
03 12.07 В 3 20 км 1/0
[Ac As]
+20.2 +15.2 73 +23 +23 комфорт 1010.1 1003.0
09 12.07 С 3 20 км 9/0
[Ac As]
+20.7 +14.6 68 +24 +24 комфорт 1009.9 1003.0
12 12.07 С 4 20 км 9/0
[Ac trans]
+21.9 +14.1 61 +25 +25 комфорт 1012.2 1005.2 +19.0 +22.6
15 12.07 С 8 20 км 6/0
[Ac trans Cs]
+27.1 +13.8 44 +29 +31 жарко 1012.5 1005.4
18 12.07 С 6 20 км 5/1 1200 м
[Sc Ac trans Ci sp]
+29.2 +16.0 45 +32 +34 душно 1010.1 1003.2
21 12.07 С 2 8000 м дым 8/0
[Ac As]
+26.4 +18.7 63 +31 +31 душно 1010.2 1003.3
00 13.07 ЮВ 1 20 км 9/0
[Ac As]
+23.1 +18.7 76 +29 +29 очень
душно
1011.7 1004.7 +21.9 +30.2
03 13.07 В 2 20 км 9/0
[Ac As]
+20.2 +18.0 87 +24 +24 комфорт 1011.7 1004.8
06 13.07 Ю 2 20 км 9/0
[Ac As]
+20.4 +17.8 85 +24 +24 комфорт 1011.5 1004.6
09 13.07 ЮВ 2 20 км 9/0
[Ac As]
+20.3 +17.6 84 +24 +24 комфорт 1011.2 1004.2
12 13.07 ЮВ 2 15 км 9/0
[Ac As Cs]
+20.3 +17.2 82 +24 +25 комфорт 1012.1 1005.0 +19.1 +23.1
15 13.07 СВ 4 18 км 9/0
[Cs]
+27.2 +16.5 52 +31 +36 душно 1012.0 1005.0
18 13.07 СЗ 4 20 км 10/0
[Cs]
+29.4 +18.7 53 +35 +38 очень
душно
1009.4 1002.5
21 13.07 З 3 20 км 10/4 900 м
[Sc Ac trans Cs]
+25.7 +21.2 76 +32 +32 очень
душно
1009.8 1002.9
00 14.07 ЮЗ 2 20 км 10/0
[Ac As Cs]
+20.3 +18.4 89 +24 +24 комфорт 1012.3 1005.3 +20.2 +29.5
03 14.07 ЮЗ 4 20 км 10/0
[Ac As]
+19.1 +17.5 90 +21 +21 комфорт 1013.6 1006.6
06 14.07 ЮЗ 5 20 км 10/10 750 м
[Sc]
+18.6 +17.8 95 +19 +19 1013.4 1006.5
09 14.07 Ю 3 20 км 10/10 240 м
[St]
+18.1 +17.8 98 +19 +19 1013.4 1006.4
12 14.07 Ю 3 5000 м дымка 10/10 240 м
[St]
+17.6 +16.8 95 +18 +18 1015.8 1008.6 +17.5 +20.3
15 14.07 ЮВ 2 5000 м в посл. час дождь туман 10/10 240 м
[Frnb]
+17.3 +16.6 96 +18 +18 1015.4 1008.2
18 14.07 Ю 3 20 км {дождь} 10/10 240 м
[Frnb]
+18.5 +17.2 92 +19 +19 1013.4 1006.2 3
21 14.07 ЮВ 3 20 км 10/10 240 м
[Frnb]
+18.2 +17.3 94 +19 +19 1013.5 1006.4
00 15.07 ЮВ 3 9000 м слаб. морось 10/10 180 м
[St]
+17.7 +16.9 95 +18 +18 1015.1 1008.0 +16.8 +20.1 0.0
03 15.07 ЮВ 2 20 км {морось} 9/6 180 м
[St Ac trans]
+16.8 +16.5 98 +17 +17 1015.4 1008.2
06 15.07 Ю 3 20 км {морось} 10/4 180 м
[St Ac As]
+17.0 +16.0 94 +17 +17 1015.1 1008.0 0.0
09 15.07 Ю 3 20 км 10/1 600 м
[Sc Ac As]
+15.5 +13.9 90 +15 +15 1015.2 1008.1
12 15.07 Ю 3 20 км 10/0
[Ac As Cs]
+15.1 +13.7 91 +14 +15 1017.7 1010.5 +13.6 +17.7 3
15 15.07 Ю 3 20 км 5/0
[Ac As Cs]
+18.8 +13.0 69 +20 +26 1019.7 1012.6
18 15.07 ЮВ 5 20 км ясно +22.4 +10.8 48 +24 +28 комфорт 1018.4 1011.3
21 15.07 Ю 3 20 км ясно +20.0 +12.0 60 +22 +22 комфорт 1019.1 1012.0
00 16.07 Ю 3 20 км ясно +15.1 +10.8 75 +15 +15 1021.4 1014.2 +15.1 +23.6
03 16.07 Ю 2 20 км ясно +11.0 +10.0 94 +10 +10 1022.0 1014.8
06 16.07 ЮЗ 2 20 км ясно +9.6 +9.2 97 +8 +8 1021.9 1014.6
09 16.07 штиль 0 20 км ясно +8.6 +8.2 97 +8 +8 1022.1 1014.9
12 16.07 ЮВ 3 20 км 6/0
[Cs]
+13.4 +9.7 78 +12 +14 1023.6 1016.4 +7.6 +15.1
15 16.07 ЮВ 5 20 км 10/0
[Cs]
+18.1 +9.5 57 +18 +22 1024.0 1016.8
18 16.07 ЮВ 5 20 км 9/0
[Cs]
+21.0 +8.9 46 +23 +25 комфорт 1021.6 1014.4
21 16.07 В 2 20 км 8/0
[Cs]
+18.3 +10.4 60 +19 +19 1020.9 1013.6
00 17.07 В 3 20 км ясно +13.4 +9.5 77 +12 +12 1022.0 1014.6 +13.4 +21.6
03 17.07 В 2 20 км ясно +10.9 +8.7 86 +10 +10 1022.6 1015.4
06 17.07 ЮВ 2 20 км ясно +10.0 +8.2 89 +8 +8 1022.3 1015.2
09 17.07 ЮВ 2 20 км ясно +6.3 +6.3 100 +4 +4 1021.8 1014.5
12 17.07 ЮВ 2 20 км ясно +10.4 +7.7 83 +9 +11 1023.0 1015.7 +5.3 +13.4
15 17.07 В 3 20 км ясно +18.5 +10.0 58 +19 +27 1023.1 1016.0
18 17.07 В 4 20 км ясно +22.5 +8.8 42 +24 +29 комфорт 1019.4 1012.2
21 17.07 В 2 20 км ясно +20.1 +13.2 64 +23 +23 комфорт 1018.3 1011.0
00 18.07 В 2 20 км ясно +14.6 +12.4 87 +14 +14 1019.1 1011.8 +10.4 +23.2
03 18.07 В 3 20 км 9/0
[Ac As]
+14.5 +11.9 84 +14 +14 1018.9 1011.7
06 18.07 В 4 20 км 6/0
[Ac As]
+16.0 +12.8 81 +15 +15 1017.4 1010.2
09 18.07 В 4 20 км 9/0
[Ac As]
+14.8 +9.8 72 +14 +14 1016.1 1009.0
12 18.07 В 5 20 км 8/0
[Ac trans]
+16.1 +11.7 75 +15 +16 1017.7 1010.5 +11.6 +16.8
15 18.07 СВ 7 20 км 6/0
[Ac trans]
+22.5 +11.6 50 +25 +26 комфорт 1018.4 1011.3
18 18.07 В 5 20 км в посл. час гроза 9/6 750 м
[Cb cap Ac As]
+22.4 +13.7 58 +26 +26 жарко 1016.7 1009.6

 

Местоположение метеостанции Формоса (Аргентина): широта -26.20 долгота -58.23 высота над уровнем моря 60 м.

В архиве по умолчанию представлена погода в Формосе за последнюю неделю. Архивные данные за месяц целиком и за предыдущие месяцы, начиная с января 2011 года, Вы можете получить, выбрав интересующий диапазон дат из раскрывающегося списка и нажав кнопку "Ввод!".


*Определитесь, кто Вы:
робот инопланетянин человек

Внимание! Время в таблицах - всемирное. Для получения местного времени необходимо прибавить поправку, которая равна -3 ч.

Смотрите также архив погоды в соседних городах и на ближайших метеорологических станциях:

Погода в Пиларе (Парагвай) (73 км)
Погода в Сан Хуан Батистута (Парагвай) (119 км)
Погода в Куйкуйо (Парагвай) (125 км)
Погода в Парагуари (Парагвай) (127 км)
Погода в Асунсьоне (Парагвай) (128 км)
Погода в Корриентесе (Аргентина) (149 км)
Погода в Ресистенсии (Аргентина) (161 км)
Погода в Грал Бругуез (Парагвай) (171 км)
Погода в Вильяррике (Парагвай) (187 км)
Погода в Каасапе (Парагвай) (188 км)

Пояснения к столбцам:

Ветер - указаны скорость ветра в м/с - средняя за 10 мин, порывы в срок и между сроками (в фигурных скобках) и направление, откуда дует ветер: С - северный, СВ - северо-восточный, В - восточный, ЮВ - юго-восточный, Ю - южный, ЮЗ - юго-западный, З - западный, СЗ - северо-западный.
Видимость - горизонтальная дальность видимости в метрах или километрах. При видимости от 1 до 10 км при отсутствии осадков обычно наблюдается дымка, при ухудшении видимости до 1 км и менее - туман. В сухую погоду видимость может ухудшаться дымом, пылью или мглою.
Явления - указаны атмосферные явления, наблюдавшиеся в срок или в последний час перед сроком; фигурными скобками обозначены явления, наблюдавшиеся между сроками (за 1-3 часа до срока); квадратными скобками обозначены град или гололедные отложения с указанием их диаметра в мм.
Облачность - указаны через наклонную черту общая и нижняя облачность в баллах и высота нижней границы облаков в метрах; квадратными скобками обозначены формы облаков: Ci - перистые, Cs - перисто-слоистые, Cc - перисто-кучевые, Ac - высококучевые, As - высокослоистые, Sc - слоисто-кучевые, Ns - слоисто-дождевые, Cu - кучевые, Cb - кучево-дождевые. Подробнее классификацию облаков см. в Атласе облаков (PDF).
T - Температура воздуха - температура, измеренная на высоте 2 м над землей.
Td - Температура точки росы - температура, при понижении до которой содержащийся в воздухе водяной пар достигнет насыщения.
f - Относительная влажность воздуха - влажноcть воздуха, измеренная на высоте 2 м над землей.
Te - Эффективная температура - температура, которую ощущает одетый по сезону человек в тени. Характеристика душности погоды. При расчете учитывается влияние влажности воздуха и скорости ветра на теплоощущения человека.
Tes - Эффективная температура на солнце - температура, которую ощущает человек, с поправкой на солнечный нагрев. Характеристика знойности погоды. Зависит от высоты солнца над горизонтом, облачности и скорости ветра. Ночью, в пасмурную погоду, а также при ветре 12 м/с и более поправка равна нулю.
P - Атмосферное давление - приведенное к уровню моря атмосферное давление.
Po - Атмосферное давление - измеренное на уровне метеостанции атмосферное давление.
Tmin - Минимальная температура - минимум температуры воздуха на высоте 2 м над землей.
Tmax - Максимальная температура - максимум температуры воздуха на высоте 2 м над землей.
R - Количество осадков - Количество выпавших осадков за период времени, мм. При наведении курсора мыши на число - период времени, за который выпало указанное количество осадков.
R24 - Количество осадков - Количество выпавших осадков за 24 часа, мм.
S - Снежный покров - Высота снежного покрова, см. При наведении курсора мыши на число - состояние снежного покрова и степень покрытия местности в баллах.